Find Starlink 35116

NORAD ID: 66078 Int'l Des: 2025-235 Owner: SPXS Country: US Constellation: starlink operational
LEOCIRCULAR

現在のビュー

3D地球を読み込み中...

About Starlink 35116

Starlink 35116 (NORAD 66078) is a starlink constellation satellite (v2 mini) launched Oct 19, 2025 by SPXS of US. It operates in LEO, CIRCULAR orbit with a mass of 575.00 kg.

次回通過

Passes for default location (London). Set your location on the main map for personalized predictions.

高度履歴

Loading altitude history...

軌道要素

1 66078U 25235W 26265.70069246 .00016739 00000-0 50537-3 0 9998
2 66078 53.1569 47.4083 0001072 63.9447 296.1666 15.34405112 53120
Epoch: Sep 22, 2026 • Age: 15 hours

現在のステータス

高度 474.0 km
遠地点 / 近地点 N/A
速度 7.63 km/s
衛星直下点 -35.08°S, 113.11°W
打ち上げ日 Oct 19, 2025
運用期間 0.9 years
タイプ internet

技術仕様

分類 Payload
質量 575.00 kg
乾燥質量 530.00 kg
長さ 0.30 m
スパン 29.00 m
形状 ? Box + pan
製造者 SPXS
バスタイプ Starlink V2MO
フェーズステータス In Orbit
所有者/国 SPXS/US

Most Searched